User: anonymous   Login
Location: Unspecified
(0.0000°N, 0.0000°E)
Time: 14:16:17
(UTC+00:00)
Language:

Transit 2A - Orbit

View from above orbital plane
View from above orbital plane
View from above satellite
View from above satellite

Ground track
Ground track

The orbit data is extracted from the following two-line orbital elements,

1    45U 60007A   18267.95999339 -.00000056 +00000-0 +12745-4 0  9997
2    45 066.6934 244.9885 0249377 054.3071 308.0959 14.33609614975357
Epoch (UTC): 24 September 2018 23:02:23
Eccentricity: 0.0249377
inclination: 66.6934°
perigee height: 601 km
apogee height: 958 km
right ascension of ascending node: 244.9885°
argument of perigee: 54.3071°
revolutions per day: 14.33609614
mean anomaly at epoch: 308.0959°
orbit number at epoch: 97535

The dashed part of the orbit path shows where the satellite is in the earth's shadow,  

DLR